STARLINK-11130, 59950

Orbit data source: Space-Track

STARLINK-11130, 59950 is a payload satellite owned by SpaceX/Seattle (US) in LEO that was launched on Wed, 05 Jun 2024 UTC via an FALCON 9 launch vehicle from the Air Force Eastern Test Range (AFETR). Payload-class satellites include a variety of spacecraft equipped with specific instruments for various scientific and technological missions. These include communications satellites like Starlink; space stations such as the ISS; scientific satellites like the Hubble; Earth observation satellites from companies like Planet Labs, Umbra, and HawkEye 360; GPS; miniature CubeSats for education and research; and military/defense satellites.

Loading next visibility...
Identifier
59950, 2024-107F
Orbit
LEO
Country
Flag of USUS
Related business
Manufacturer
SpaceX/Seattle
Mission
Operational Commercial Communications
Bus & Motor
STARLINK V2MD, Unknown motor
Mass
960 kg wet, ~910 kg dry
Launch date (UTC)
2024-06-05 (2 years ago)
Launch vehicle
FALCON 9
Launch site
Air Force Eastern Test Range (AFETR)
Object type
Payload
Rocket body
Debris
Shape & HBR
Box + 2 Pan, 18.1 m
Radar Cross Section
36.964 m², Large (>1 m²)

Expand to show TLE details & history
Last TLE update: 3 days ago

TLE from 3 days ago
0 STARLINK-11130
1 59950U 24107F   26170.55813151  .00002010  00000-0  21437-4 0  9991
2 59950  53.1596 109.2307 0000997  82.6324 277.4807 15.69714113118149
Epoch: 2026-06-19T13:23Z
TLE epoch observation values (Epoch: 2026-06-19T13:23:42.562Z)
Latitude
-0.00004°
Longitude
0.51795°
Altitude
360.543 km
Speed
7.694 km/s
True Right ascension
07h 16m 55s
True Declination
0° 00' 00"
Sunlit
Object was in daylight at epoch
Visualization orbit readout
Latitude
Unknown
Longitude
Unknown
Altitude
Unknown
Speed
Unknown
Apparent Right ascension
Unknown
Apparent Declination
Unknown
Sunlit
N/A
Visualization observer readout
Local Sidereal Time
00:50:38
Azimuth
Unknown
Elevation
Unknown
Doppler factor
Unknown
Orbital elements
Apogee altitude
360.648 km
Perigee altitude
359.304 km
Semi-major axis
6,738.113 km
Eccentricity
0.0001
Inclination
53.1596°
RAAN
109.2307°
Arg. of periapsis
82.6324°
True anomaly
277.46937°
Mean anomaly
277.4807°
Eccentric anomaly
277.47504°
Mean motion
3.92406 °/min
Orbital period
91.74 mins
BSTAR
0.000021437
Loading maneuver chart data...
Computing Atmospheric mass density...
Loading historical data...
Loading historical data...
Loading historical data...
Loading historical data...
Loading historical data...
Loading historical data...
Loading historical data...

Documentation

Showing up to 5 results
|